Date,Time,ΒΙΑΝΝΟΣ Duration (SUM),M08 WIND SPEED (AVG),ΒΙΑΝΝΟΣ Precipitation (SUM),Daily ETo (SUM),ΒΙΑΝΝΟΣ WIND DIRECTION (AVG),M08 Pyranometer 0 - 2000 W/m² (AVG),M08 Relative Humidity (AVG),M08 Barometric Pressure (AVG),M08 Temperature (AVG)
30/08/2015,00:00:00,*,*,*,*,*,*,*,*,*
29/09/2015,00:00:00,3.9,1.2,0.1,6.92,166.9,285.9,50.2,948.9,27.1
29/10/2015,00:00:00,58.0,1.2,2.6,2.79,157.3,194.9,67.8,950.0,21.5
28/11/2015,00:00:00,110.1,1.7,2.4,9.66,158.8,188.7,62.9,952.1,19.4
28/12/2015,00:00:00,54.0,1.8,1.7,7.69,132.5,148.1,61.7,954.6,15.5
27/01/2016,00:00:00,15.5,2.3,0.1,8.18,120.2,129.6,60.6,959.9,11.5
26/02/2016,00:00:00,474.1,2.1,13.7,7.89,178.5,108.5,68.8,954.1,9.7
27/03/2016,00:00:00,1843.5,2.2,46.7,97.34,185.1,205.4,61.0,950.1,12.6
26/04/2016,00:00:00,297.9,2.2,7.0,16.46,188.5,211.4,61.1,949.3,12.5
26/05/2016,00:00:00,5.0,1.6,0.0,25.22,167.1,281.5,40.3,950.1,19.1
25/06/2016,00:00:00,156.8,1.6,2.2,29.43,199.2,275.2,47.8,950.0,19.8
25/07/2016,00:00:00,0.0,1.7,0.0,38.39,180.9,319.4,38.3,948.9,26.2
24/08/2016,00:00:00,0.0,3.1,0.0,53.17,124.1,334.8,37.8,946.9,26.4
23/09/2016,00:00:00,0.0,2.0,0.0,49.24,149.4,297.6,41.3,947.8,26.8
23/10/2016,00:00:00,96.0,2.1,1.7,39.15,148.6,246.2,47.9,950.6,22.9
22/11/2016,00:00:00,192.2,1.7,16.0,32.34,153.9,200.2,54.6,952.4,20.2
22/12/2016,00:00:00,126.0,1.6,3.2,19.59,145.2,134.7,66.5,954.1,14.8
21/01/2017,00:00:00,2216.3,2.5,61.9,15.27,160.6,106.9,66.7,954.9,8.3
20/02/2017,00:00:00,1288.0,2.1,37.7,15.38,158.8,106.8,71.5,951.9,7.6
22/03/2017,00:00:00,3076.3,1.7,90.7,75.52,156.2,180.9,65.4,950.4,11.5
21/04/2017,00:00:00,1225.5,1.6,39.2,26.81,163.2,190.7,63.8,948.3,12.2
21/05/2017,00:00:00,130.0,1.3,1.7,39.07,160.8,246.9,53.9,950.7,15.2
20/06/2017,00:00:00,415.1,1.4,17.1,52.22,175.4,266.0,48.3,948.9,20.2
20/07/2017,00:00:00,22.0,1.3,1.2,66.29,152.5,320.0,43.8,948.6,25.2
19/08/2017,00:00:00,0.0,2.5,0.0,87.27,136.8,330.5,37.3,945.5,27.6
18/09/2017,00:00:00,0.0,2.4,0.0,83.19,133.8,297.8,43.9,945.7,26.4
18/10/2017,00:00:00,26.0,1.3,0.3,62.79,162.9,251.8,41.0,949.2,24.4
17/11/2017,00:00:00,190.0,1.9,11.0,47.68,144.2,191.4,53.9,950.1,18.1
17/12/2017,00:00:00,406.0,1.5,18.7,27.89,148.1,125.3,66.8,950.9,14.0
16/01/2018,00:00:00,1277.4,1.7,35.8,20.86,154.9,92.5,74.1,952.9,11.4
15/02/2018,00:00:00,1331.6,2.2,25.1,28.45,175.2,118.3,66.7,950.8,10.0
17/03/2018,00:00:00,1497.6,1.7,34.8,79.06,170.7,158.5,62.4,946.4,13.1
16/04/2018,00:00:00,362.4,1.8,8.3,49.51,174.4,191.7,55.4,945.8,14.6
16/05/2018,00:00:00,195.0,1.4,5.0,69.84,138.0,272.7,42.8,948.3,18.6
15/06/2018,00:00:00,603.8,1.5,26.4,80.95,161.1,287.5,48.9,945.9,21.9
15/07/2018,00:00:00,256.0,1.4,11.5,86.42,180.0,291.5,51.2,945.1,24.0
14/08/2018,00:00:00,98.7,1.8,1.0,107.40,154.2,308.9,44.3,944.2,27.0
13/09/2018,00:00:00,34.8,2.3,0.6,114.52,145.3,298.2,46.9,944.9,26.2
13/10/2018,00:00:00,252.0,2.0,6.8,86.50,137.3,244.1,51.4,947.8,23.2
12/11/2018,00:00:00,294.4,1.5,3.3,62.79,142.6,190.6,60.5,950.0,18.9
12/12/2018,00:00:00,1823.9,1.8,49.5,40.01,147.1,128.7,67.8,949.6,15.3
11/01/2019,00:00:00,2825.7,2.1,101.9,26.36,166.2,91.6,72.9,949.1,10.3
10/02/2019,00:00:00,4531.8,2.0,157.4,21.87,176.9,84.8,77.7,943.8,8.3
12/03/2019,00:00:00,5071.4,2.0,170.0,64.17,161.3,152.7,68.8,948.2,10.3
11/04/2019,00:00:00,2146.7,1.9,48.6,64.53,177.4,219.5,60.5,948.3,12.6
11/05/2019,00:00:00,1040.0,2.0,62.3,70.26,174.8,228.6,59.3,947.3,14.3
10/06/2019,00:00:00,162.6,1.1,3.7,101.32,176.1,284.5,47.9,946.4,19.6
10/07/2019,00:00:00,0.0,2.0,0.0,133.94,157.6,334.3,47.8,945.9,24.7
09/08/2019,00:00:00,63.9,1.9,6.8,146.08,154.7,329.5,43.1,943.3,26.4
08/09/2019,00:00:00,0.0,2.1,0.0,152.39,131.8,312.9,40.8,943.9,27.2
08/10/2019,00:00:00,92.0,2.0,1.2,120.77,147.6,265.7,47.4,946.4,23.0
07/11/2019,00:00:00,209.1,1.8,7.4,87.29,146.2,194.0,54.8,948.2,20.9
07/12/2019,00:00:00,888.0,14.8,35.2,84.27,136.3,131.5,69.3,947.8,17.1
06/01/2020,00:00:00,3895.1,7.8,151.3,47.67,153.5,105.1,73.2,947.0,11.5
05/02/2020,00:00:00,6491.4,3.0,199.1,43.02,155.6,117.2,70.6,950.6,8.7
06/03/2020,00:00:00,3032.1,2.2,83.3,62.73,163.1,151.5,71.3,948.2,10.4
05/04/2020,00:00:00,1106.8,1.8,55.8,71.48,147.0,191.7,64.5,945.7,12.1
05/05/2020,00:00:00,1768.0,1.8,26.0,104.32,154.2,259.0,56.2,945.3,14.7
04/06/2020,00:00:00,78.4,5.5,0.7,207.04,159.1,309.7,40.9,947.1,21.9
04/07/2020,00:00:00,108.0,2.9,2.0,170.16,154.7,323.6,48.7,943.5,23.0
03/08/2020,00:00:00,27.1,7.0,0.4,256.08,130.4,337.9,38.4,941.7,27.1
02/09/2020,00:00:00,0.0,4.1,0.0,222.87,136.2,314.5,38.5,941.8,27.3
02/10/2020,00:00:00,116.0,3.4,1.9,165.37,139.2,253.3,47.4,945.3,25.5
01/11/2020,00:00:00,1132.3,1.3,62.5,94.15,125.7,175.1,58.5,947.8,21.0
01/12/2020,00:00:00,3359.9,1.9,96.6,61.67,110.5,128.7,69.4,949.1,14.1
31/12/2020,00:00:00,*,*,*,*,*,*,*,*,*
30/01/2021,00:00:00,125.7,2.0,5.0,1.32,121.7,101.1,77.5,947.2,12.2
01/03/2021,00:00:00,1674.2,3.0,39.3,78.55,131.1,174.4,62.7,949.1,11.3
31/03/2021,00:00:00,*,*,*,*,*,*,*,*,*
30/04/2021,00:00:00,70.7,2.3,2.2,2.54,141.4,203.9,63.1,946.1,10.8
30/05/2021,00:00:00,18.0,1.9,0.4,4.19,149.9,252.2,48.3,947.1,16.1
29/06/2021,00:00:00,0.0,1.5,0.0,11.95,185.8,324.5,34.6,944.8,23.6
29/07/2021,00:00:00,10.0,1.4,0.3,12.16,170.0,324.6,42.2,945.5,24.4
28/08/2021,00:00:00,0.0,2.0,0.0,20.01,141.8,339.0,41.7,941.4,27.3
27/09/2021,00:00:00,0.0,1.9,0.0,26.80,157.0,309.7,34.2,942.8,28.7
27/10/2021,00:00:00,12.0,1.6,0.2,19.62,153.6,259.6,45.1,945.5,23.6
26/11/2021,00:00:00,511.5,2.9,6.1,14.84,144.1,176.8,64.0,947.8,17.8
26/12/2021,00:00:00,135.0,4.0,4.3,12.38,123.1,128.4,65.9,947.5,16.1
25/01/2022,00:00:00,394.8,3.0,3.9,8.02,112.4,96.7,75.1,945.1,10.5
24/02/2022,00:00:00,81.3,2.8,0.5,8.95,158.5,101.9,76.8,945.5,7.8
26/03/2022,00:00:00,776.7,2.6,27.6,9.56,136.3,139.5,72.1,946.0,9.6
25/04/2022,00:00:00,917.9,2.3,22.6,12.16,116.1,179.1,67.2,948.3,7.6
25/05/2022,00:00:00,0.0,2.6,0.0,30.20,129.4,259.2,46.9,943.2,17.1
24/06/2022,00:00:00,20.3,3.0,0.7,42.03,137.6,308.1,43.9,945.6,20.6
24/07/2022,00:00:00,14.0,2.8,0.2,47.63,160.2,331.6,46.2,942.4,24.7
23/08/2022,00:00:00,23.2,3.2,1.1,58.03,158.4,340.0,38.7,941.3,26.3
22/09/2022,00:00:00,69.7,2.7,3.3,57.82,158.0,299.2,51.0,940.4,25.9
22/10/2022,00:00:00,81.0,3.0,2.2,48.98,152.7,252.5,50.7,943.9,23.3
21/11/2022,00:00:00,475.5,3.8,22.8,41.67,115.6,201.3,55.4,947.3,19.0
21/12/2022,00:00:00,180.0,3.3,14.2,27.68,105.6,142.4,62.9,946.1,15.3
20/01/2023,00:00:00,394.2,3.3,17.6,21.04,109.1,124.7,72.2,948.5,13.3
19/02/2023,00:00:00,673.5,2.5,19.5,21.17,112.3,119.7,72.6,947.1,10.9
21/03/2023,00:00:00,1264.2,2.3,25.4,24.29,122.1,172.9,64.7,949.3,8.8
20/04/2023,00:00:00,626.5,2.2,17.0,31.07,125.0,203.0,61.8,942.0,12.9
20/05/2023,00:00:00,319.0,1.9,6.0,43.12,136.7,249.2,61.0,942.0,14.4
19/06/2023,00:00:00,499.3,2.4,8.4,47.57,139.7,232.4,60.2,942.7,18.0
19/07/2023,00:00:00,204.0,2.0,13.7,73.05,157.9,320.0,50.8,941.8,23.7
18/08/2023,00:00:00,0.0,3.0,0.0,100.22,186.5,338.6,35.0,942.0,29.5
17/09/2023,00:00:00,0.0,2.7,0.0,96.26,174.9,309.9,45.5,941.3,27.1
17/10/2023,00:00:00,70.0,2.8,3.4,75.93,152.1,246.1,48.1,942.9,24.9
16/11/2023,00:00:00,72.7,3.2,7.8,56.05,129.6,194.9,59.4,946.5,20.3
16/12/2023,00:00:00,900.0,3.2,44.1,34.43,141.2,125.9,70.3,944.3,16.9
15/01/2024,00:00:00,464.5,2.2,14.6,27.26,117.0,115.6,72.5,946.3,13.3
14/02/2024,00:00:00,3553.4,2.4,71.0,26.43,166.0,106.9,72.5,945.9,10.6
15/03/2024,00:00:00,1870.8,2.7,43.8,36.65,163.1,154.9,70.8,946.6,11.4
